User: anonymous   Login
Location: Unspecified
(0.0000°N, 0.0000°E)
Time: 11:07:43
(UTC+00:00)
Language:

TBA - TO BE ASSIGNED - Orbit

View from above orbital plane
View from above orbital plane
View from above satellite
View from above satellite

Ground track
Ground track

The orbit is defined by the following mean orbital elements,

1 67567U          26145.13814870 +.00000000 +00000-0 +53932-3 0 00009
2 67567  97.2853 205.5248 0000339  72.2290 287.8990 15.33447416    01
Epoch (UTC): 25 May 2026 03:18:56
Eccentricity: 0.0000339
inclination: 97.2853°
perigee height: 465 km
apogee height: 466 km
right ascension of ascending node: 205.5248°
argument of perigee: 72.2290°
revolutions per day: 15.33447416
mean anomaly at epoch: 287.8990°

The dashed part of the orbit path shows where the satellite is in the earth's shadow,  

DLR